TimeEDT,TemperatureF,Dew PointF,Humidity,Sea Level PressureIn,VisibilityMPH,Wind Direction,Wind SpeedMPH,Gust SpeedMPH,PrecipitationIn,Events,Conditions,WindDirDegrees,DateUTC
12:56 AM,64.9,63.0,93,30.20,10.0,Calm,Calm,-,N/A,,Mostly Cloudy,0,2012-10-04 04:56:00
1:06 AM,64.4,62.6,94,30.22,10.0,Calm,Calm,-,N/A,,Mostly Cloudy,0,2012-10-04 05:06:00
1:31 AM,66.2,62.6,88,30.22,10.0,Calm,Calm,-,N/A,,Scattered Clouds,0,2012-10-04 05:31:00
1:56 AM,64.0,62.1,93,30.20,10.0,Calm,Calm,-,N/A,,Mostly Cloudy,0,2012-10-04 05:56:00
2:47 AM,64.4,62.6,94,30.22,6.0,Calm,Calm,-,N/A,,Mostly Cloudy,0,2012-10-04 06:47:00
2:54 AM,64.4,62.6,94,30.21,7.0,Calm,Calm,-,N/A,,Scattered Clouds,0,2012-10-04 06:54:00
2:56 AM,64.0,62.1,93,30.19,8.0,Calm,Calm,-,N/A,,Scattered Clouds,0,2012-10-04 06:56:00
3:56 AM,63.0,62.1,97,30.19,7.0,Calm,Calm,-,N/A,,Partly Cloudy,0,2012-10-04 07:56:00
4:56 AM,63.0,62.1,97,30.19,6.0,Calm,Calm,-,N/A,,Clear,0,2012-10-04 08:56:00
5:56 AM,63.0,61.0,93,30.21,9.0,Calm,Calm,-,N/A,,Clear,0,2012-10-04 09:56:00
6:56 AM,62.1,61.0,96,30.22,5.0,Calm,Calm,-,N/A,,Clear,0,2012-10-04 10:56:00
7:35 AM,62.6,60.8,94,30.24,1.8,Calm,Calm,-,N/A,,Clear,0,2012-10-04 11:35:00
7:50 AM,62.6,60.8,94,30.25,3.0,Calm,Calm,-,N/A,,Clear,0,2012-10-04 11:50:00
7:56 AM,62.1,61.0,96,30.23,5.0,Calm,Calm,-,N/A,,Clear,0,2012-10-04 11:56:00
8:10 AM,62.6,62.6,100,30.25,3.0,Calm,Calm,-,N/A,,Scattered Clouds,0,2012-10-04 12:10:00
8:13 AM,62.6,62.6,100,30.25,2.5,Calm,Calm,-,N/A,,Mostly Cloudy,0,2012-10-04 12:13:00
8:31 AM,62.6,62.6,100,30.25,1.8,Calm,Calm,-,N/A,,Overcast,0,2012-10-04 12:31:00
8:38 AM,62.6,62.6,100,30.25,2.0,Calm,Calm,-,N/A,,Overcast,0,2012-10-04 12:38:00
8:56 AM,63.0,62.1,97,30.24,3.0,Calm,Calm,-,N/A,,Mostly Cloudy,0,2012-10-04 12:56:00
9:16 AM,64.4,64.4,100,30.26,4.0,Calm,Calm,-,N/A,,Scattered Clouds,0,2012-10-04 13:16:00
9:56 AM,68.0,64.0,87,30.25,9.0,Calm,Calm,-,N/A,,Clear,0,2012-10-04 13:56:00
10:56 AM,72.0,61.0,68,30.25,10.0,West,9.2,-,N/A,,Clear,260,2012-10-04 14:56:00
11:56 AM,75.0,57.9,55,30.24,10.0,WNW,4.6,-,N/A,,Clear,290,2012-10-04 15:56:00
12:56 PM,77.0,59.0,54,30.23,10.0,Variable,5.8,-,N/A,,Clear,0,2012-10-04 16:56:00
1:56 PM,79.0,55.0,44,30.21,10.0,WSW,5.8,-,N/A,,Clear,250,2012-10-04 17:56:00
2:56 PM,79.0,55.0,44,30.19,10.0,WNW,5.8,-,N/A,,Clear,290,2012-10-04 18:56:00
3:56 PM,79.0,55.0,44,30.18,10.0,Calm,Calm,-,N/A,,Clear,0,2012-10-04 19:56:00
5:56 PM,79.0,55.9,45,30.17,10.0,West,3.5,-,N/A,,Clear,270,2012-10-04 21:56:00
6:56 PM,75.0,60.1,60,30.16,10.0,SW,4.6,-,N/A,,Clear,220,2012-10-04 22:56:00
7:56 PM,68.0,61.0,78,30.17,10.0,Calm,Calm,-,N/A,,Clear,0,2012-10-04 23:56:00
10:56 PM,62.1,60.1,93,30.21,10.0,Calm,Calm,-,N/A,,Clear,0,2012-10-05 02:56:00
11:56 PM,61.0,59.0,93,30.21,9.0,Calm,Calm,-,N/A,,Clear,0,2012-10-05 03:56:00